Weather History for KP59 - November, 2013

Change the Weather History Date:

Friday, November 29, 2013

  Actual Average Record
Temperature  
Mean Temperature 22 °F -  
Max Temperature 28 °F 33 °F 53 °F (1998)
Min Temperature 16 °F 25 °F 7 °F (1996)
Degree Days  
Heating Degree Days 43    
Moisture  
Dew Point 18 °F    
Average Humidity 78    
Maximum Humidity 89    
Minimum Humidity 64    
Precipitation  
Precipitation 0.00 in - - ()
Sea Level Pressure  
Sea Level Pressure 30.49 in    
Wind  
Wind Speed 4 mph (SW)    
Max Wind Speed 13 mph    
Max Gust Speed 22 mph    
Averages and records for this station are not official NWS values.
T = Trace of Precipitation, MM = Missing Value Source: NWS Daily Summary

Daily Weather History Graph

Daily Weather History Graph

Search for Another Location

Airport or City:

Trip Planner

Search our weather history database for the weather conditions in past years. The results will help you decide how hot, cold, wet, or windy it might be!

Date:

Astronomy

Nov. 29, 2013 Rise Set
Actual Time 8:16 AM EST 5:03 PM EST
Civil Twilight 7:41 AM EST 5:38 PM EST
Nautical Twilight 7:02 AM EST 6:16 PM EST
Astronomical Twilight 6:25 AM EST 6:53 PM EST
Moon 4:07 AM EST (11/29) 3:00 PM EST (11/29)
Length of Visible Light 9h 57m
Length of Day
8h 47m
Waning Crescent, 14% of the Moon is Illuminated
Nov 29
Waning Crescent
Dec 2
New
Dec 9
First Quarter
Dec 17
Full
Dec 25
Last Quarter

Hourly Weather History & Observations

Time (EST) Temp. Windchill Dew Point Humidity Pressure Visibility Wind Dir Wind Speed Gust Speed Precip Events Conditions
12:51 AM 23.0 °F 18.4 °F 16.0 °F 74% 30.50 in - Variable 3.5 mph - N/A   Unknown
1:51 AM 21.9 °F - 17.1 °F 82% 30.51 in - Calm Calm - N/A   Unknown
2:51 AM 21.0 °F 16.2 °F 17.1 °F 85% 30.52 in - WSW 3.5 mph - N/A   Unknown
3:51 AM 19.9 °F 13.4 °F 17.1 °F 89% 30.53 in - WSW 4.6 mph - N/A   Unknown
4:51 AM 19.9 °F 13.4 °F 17.1 °F 89% 30.53 in - WSW 4.6 mph - N/A   Unknown
5:51 AM 19.0 °F 13.9 °F 16.0 °F 88% 30.54 in - SW 3.5 mph - N/A   Unknown
6:51 AM 18.0 °F 11.1 °F 15.1 °F 88% 30.55 in - WSW 4.6 mph - N/A   Unknown
7:51 AM 16.0 °F 7.4 °F 12.9 °F 88% 30.57 in - WSW 5.8 mph - N/A   Unknown
8:51 AM 17.1 °F 7.6 °F 14.0 °F 88% 30.58 in - WSW 6.9 mph - N/A   Unknown
9:51 AM 19.9 °F 12.1 °F 15.1 °F 81% 30.58 in - WSW 5.8 mph - N/A   Unknown
10:51 AM 25.0 °F 20.7 °F 18.0 °F 75% 30.58 in - WSW 3.5 mph - N/A   Unknown
11:51 AM 26.1 °F - 18.0 °F 71% 30.58 in - Calm Calm - N/A   Unknown
12:51 PM 27.0 °F 23.0 °F 19.0 °F 72% 30.55 in - SW 3.5 mph - N/A   Unknown
1:51 PM 27.0 °F 21.6 °F 19.9 °F 75% 30.53 in - SSW 4.6 mph - N/A   Unknown
2:51 PM 26.1 °F 21.9 °F 19.9 °F 78% 30.50 in - SW 3.5 mph - N/A   Unknown
3:51 PM 27.0 °F 18.7 °F 21.0 °F 78% 30.48 in - SSW 8.1 mph - N/A   Unknown
4:51 PM 27.0 °F - 19.9 °F 75% 30.46 in - Calm Calm - N/A   Unknown
5:51 PM 27.0 °F 21.6 °F 19.9 °F 75% 30.44 in - Variable 4.6 mph - N/A   Unknown
6:51 PM 27.0 °F - 19.9 °F 75% 30.41 in - Calm Calm - N/A   Unknown
7:51 PM 28.9 °F 22.8 °F 18.0 °F 64% 30.40 in - Variable 5.8 mph - N/A   Unknown
8:51 PM 28.0 °F 18.1 °F 19.9 °F 72% 30.36 in - SW 11.5 mph 21.9 mph N/A   Unknown
9:51 PM 28.0 °F 18.1 °F 19.9 °F 72% 30.33 in - SW 11.5 mph 17.3 mph N/A   Unknown
10:51 PM 28.0 °F 17.5 °F 19.0 °F 69% 30.31 in - SW 12.7 mph 20.7 mph N/A   Unknown
11:51 PM 28.0 °F 20.0 °F 18.0 °F 66% 30.30 in - SW 8.1 mph 17.3 mph N/A   Unknown